Location: Arclight Observatory
(36.5667°N, 87.3333°W)
Time: 13:19:00
(UTC-05:00)

ISS - Visible Passes

Search period start: 01 October 2014 00:00
Search period end: 11 October 2014 00:00
Orbit: 413 x 416 km, 51.6° (Epoch: 01 October)

Date Brightness Start Highest point End Pass type
(mag) Time Alt. Az. Time Alt. Az. Time Alt. Az.
01 Oct -1.2 04:38:21 28° ENE 04:38:21 28° ENE 04:40:30 10° ESE visible
01 Oct -1.8 06:11:25 10° W 06:13:58 21° SW 06:16:31 10° S visible
02 Oct -2.8 05:25:07 39° SW 05:25:07 39° SW 05:28:06 10° SSE visible
03 Oct -0.3 04:39:06 11° SE 04:39:06 11° SE 04:39:14 10° SE visible
04 Oct -0.9 20:23:36 10° SW 20:24:32 17° SW 20:24:32 17° SW visible
05 Oct -2.6 19:34:45 10° SSW 19:37:47 34° SE 19:38:12 32° ESE visible
06 Oct -1.7 20:22:02 10° WSW 20:24:33 35° WNW 20:24:33 35° WNW visible
07 Oct -3.1 19:32:34 10° SW 19:35:52 72° NW 19:37:49 23° NE visible
08 Oct -3.1 18:43:22 10° SW 18:46:37 57° SE 18:49:54 10° ENE visible
08 Oct -0.8 20:21:11 10° WNW 20:23:32 18° NNW 20:23:47 18° NNW visible
09 Oct -1.4 19:31:12 10° W 19:34:04 27° NNW 19:36:43 11° NNE visible
10 Oct -2.3 18:41:27 10° WSW 18:44:39 45° NW 18:47:52 10° NE visible
10 Oct -0.2 20:21:44 10° NNW 20:22:01 10° NNW 20:22:18 10° NNW visible
